[[{"header":{"parameterUnit":"m.s-1","parameterCategory":1,"la1":30.2991,"la2":30.254,"lo1":-89.0895,"lo2":-89.0444,"dy":0.0017,"dx":0.0017,"nx":28,"ny":28,"refTime":"2025-06-14T09:00:00:Z","depth":0,"parameterNumber":2,"parameterNumberName":"U-component_of_WINDS"},"data":[0,0,0,0,0,0,0,0,0,0,0,0,0,0,0,0,0,0,0,0,0,0,0,0,0,0,0,0,0,0,0,0,0,0,0,0,0,0,0,0,0,0,0,0,0,0,0,0,0,0,0,0,0,0,0,0,0,0,0.7478,0.7479,0,0.7532,0.7533,0.7533,0.7551,0.7551,0.7551,0.7551,0.7603,0.7605,0.7607,0,0,0,0,0,0,0,0,0,0,0,0,0,0.739,0.7391,0.7478,0.7479,0.748,0.7532,0.7533,0.7534,0.7551,0.7551,0.7551,0.755,0.7603,0.7605,0.7607,0,0,0,0,0,0,0,0,0,0,0,0,0,0.7434,0.7392,0.7478,0.7495,0.7497,0.7532,0.7533,0.7534,0.7551,0.7551,0.7551,0.755,0.7602,0.7605,0.7607,0.7629,0,0,0.7614,0.7615,0,0,0,0,0,0,0,0,0.7432,0.7438,0.7492,0.7494,0.7496,0.7535,0.7521,0.7565,0.7551,0.7531,0.7551,0.755,0.7581,0.7585,0.7596,0.7631,0.7633,0.7615,0.7616,0.7617,0.7618,0,0,0,0,0,0,0,0.7429,0.7435,0.7499,0.7492,0.7495,0.7499,0.7505,0.753,0.7557,0.7532,0.7534,0.754,0.7582,0.7593,0.7597,0.7634,0.7615,0.7617,0.7618,0.7619,0.7693,0.7693,0,0,0,0,0,0,0.7423,0.7433,0.7498,0.7501,0.7463,0.7501,0.7508,0.7523,0.7557,0.7561,0.754,0.7541,0.7589,0.7594,0.7599,0.7628,0.7617,0.7619,0.7621,0.7692,0.7693,0.7693,0,0,0,0,0,0,0.7421,0.7429,0.7496,0.7467,0.7476,0.7503,0.7519,0.7524,0.7535,0.7563,0.7567,0.7547,0.7589,0.7595,0.7622,0.763,0.762,0.7623,0.7692,0.7692,0.7693,0.7686,0,0,0,0,0,0,0.7418,0.7428,0.7436,0.7467,0.7478,0.7518,0.752,0.7525,0.754,0.7541,0.757,0.7575,0.7589,0.7618,0.7624,0.7633,0.7625,0.7691,0.7692,0.7693,0.7686,0.7686,0.7687,0,0,0,0,0,0.7415,0.7431,0.7437,0.7444,0.7489,0.7518,0.7524,0.7541,0.754,0.7549,0.7567,0.7574,0.7628,0.7621,0.7628,0.7638,0.7691,0.7692,0.7693,0.7685,0.7686,0.7687,0,0,0,0,0,0,0.7399,0.7435,0.7442,0.7468,0.749,0.7521,0.7533,0.7541,0.7563,0.7563,0.7583,0.7589,0.7615,0.7629,0.762,0.7662,0.766,0.7662,0.7652,0.7653,0.7654,0.765,0.7627,0,0,0,0,0,0.7398,0.742,0.745,0.7471,0.7481,0.7505,0.7519,0.753,0.7553,0.7562,0.7582,0.7604,0.7626,0.764,0.7662,0.7688,0.7695,0.7698,0.7699,0.7699,0.7701,0.7718,0.772,0.7697,0.7697,0.7697,0,0,0.7397,0.742,0.7432,0.7468,0.7486,0.7508,0.7513,0.7535,0.7551,0.7565,0.7592,0.7608,0.7633,0.766,0.7673,0.7672,0.771,0.7701,0.7701,0.7703,0.772,0.7722,0.7724,0.7698,0.7698,0.7698,0,0,0.7407,0.7426,0.7446,0.7465,0.7493,0.7509,0.7514,0.7545,0.7556,0.7583,0.7595,0.7615,0.7652,0.7671,0.7685,0.7704,0.7712,0.7711,0.7714,0.7731,0.7732,0.7734,0.7742,0.7745,0.7712,0.7712,0.7712,0,0.7402,0.7435,0.7455,0.7477,0.7493,0.7509,0.753,0.7547,0.758,0.7591,0.7591,0.764,0.7658,0.769,0.7695,0.7706,0.7713,0.7707,0.7731,0.7733,0.7734,0.7743,0.7746,0.7712,0.7712,0.7712,0.7712,0,0.7428,0.7452,0.7464,0.7499,0.7516,0.7537,0.756,0.7576,0.7587,0.7603,0.7632,0.7654,0.7682,0.7691,0.77,0.7725,0.7724,0.7727,0.7725,0.7736,0.7744,0.7747,0.7712,0.7712,0.7712,0.7712,0,0,0.7427,0.7474,0.7478,0.7495,0.7529,0.7547,0.757,0.7598,0.7612,0.7635,0.7655,0.7687,0.7691,0.7707,0.772,0.7734,0.775,0.7735,0.7736,0.7738,0.778,0.7778,0.7781,0.7755,0.7755,0.7756,0.7778,0,0.7442,0.7484,0.7504,0.7537,0.756,0.7576,0.7596,0.7619,0.7636,0.7657,0.7675,0.7698,0.77,0.7711,0.7725,0.7744,0.7758,0.7743,0.7774,0.7775,0.7768,0.7785,0.7783,0.7803,0.7781,0.7782,0.7782,0,0.7464,0.7489,0.7526,0.7559,0.7569,0.7587,0.7616,0.7636,0.7663,0.7674,0.7694,0.7706,0.7731,0.7728,0.7764,0.7753,0.7767,0.7778,0.7779,0.7783,0.7779,0.7791,0.7809,0.7813,0.7787,0.7787,0.7786,0,0.7461,0.7504,0.7532,0.7546,0.7585,0.7598,0.7614,0.7641,0.7658,0.7683,0.7694,0.7721,0.7736,0.7757,0.7777,0.7772,0.7811,0.7809,0.7821,0.7821,0.7828,0.7828,0.785,0.7836,0.7836,0.7836,0.7836,0,0.7476,0.7497,0.7532,0.7549,0.7575,0.7597,0.7622,0.764,0.7664,0.7685,0.77,0.772,0.7744,0.7767,0.7782,0.781,0.7816,0.7826,0.783,0.7825,0.7824,0.7835,0.7834,0.7837,0.7836,0.7836,0.7836,0,0.7476,0.75,0.7532,0.7568,0.7577,0.7595,0.7625,0.7643,0.7661,0.7688,0.7695,0.7723,0.7751,0.7773,0.7808,0.7819,0.7849,0.7853,0.784,0.7842,0.7854,0.7853,0.7885,0.7891,0.7871,0.7872,0.7872,0,0.7484,0.7502,0.754,0.7556,0.7574,0.7599,0.7617,0.764,0.7658,0.7692,0.7706,0.7735,0.776,0.7803,0.7827,0.7855,0.786,0.7869,0.7864,0.7859,0.7861,0.786,0.7863,0.787,0.787,0.787,0.787,0,0.7496,0.7508,0.7533,0.7564,0.7586,0.761,0.7636,0.7648,0.7676,0.7695,0.7725,0.7744,0.7782,0.7812,0.7842,0.7859,0.787,0.7872,0.7876,0.7872,0.7864,0.787,0.7843,0.7871,0.7871,0.7871,0.787,0.787,0.7501,0.7518,0.7549,0.7578,0.76,0.7624,0.7643,0.7665,0.769,0.7724,0.7736,0.7767,0.7795,0.7838,0.7856,0.788,0.7881,0.7887,0.7889,0.789,0.789,0.786,0.7886,0.7886,0.7886,0.7886,0.7886,0,0.7514,0.7536,0.7562,0.7598,0.7622,0.7631,0.766,0.7679,0.7706,0.7732,0.7757,0.7792,0.7821,0.7848,0.7879,0.7893,0.7899,0.79,0.79,0.7904,0.7887,0.7881,0.7896,0.7896,0.7896,0.7896,0.7896,0.7896,0.7524,0.7555,0.7571,0.7613,0.7634,0.7666,0.7682,0.7704,0.7726,0.7765,0.779,0.7808,0.7835,0.7868,0.7895,0.7902,0.7913,0.7914,0.7922,0.7906,0.7905,0.7904,0.7898,0.7916,0.7916,0.7937,0.7937,0.7937]},{"header":{"parameterUnit":"m.s-1","parameterCategory":1,"la1":30.2991,"la2":30.254,"lo1":-89.0895,"lo2":-89.0444,"dy":0.0017,"dx":0.0017,"nx":28,"ny":28,"refTime":"2025-06-14T09:00:00:Z","depth":0,"parameterNumber":3,"parameterNumberName":"V-component_of_WINDS"},"data":[0,0,0,0,0,0,0,0,0,0,0,0,0,0,0,0,0,0,0,0,0,0,0,0,0,0,0,0,0,0,0,0,0,0,0,0,0,0,0,0,0,0,0,0,0,0,0,0,0,0,0,0,0,0,0,0,0,0,3.7104,3.7104,0,3.7107,3.7107,3.7108,3.7126,3.7126,3.7127,3.7127,3.713,3.7129,3.7129,0,0,0,0,0,0,0,0,0,0,0,0,0,3.7113,3.7112,3.7104,3.7104,3.7104,3.7107,3.7107,3.7108,3.7126,3.7127,3.7127,3.7128,3.713,3.7129,3.7129,0,0,0,0,0,0,0,0,0,0,0,0,0,3.7112,3.7112,3.7104,3.7114,3.7115,3.7107,3.7107,3.7108,3.7126,3.7127,3.7127,3.7128,3.713,3.713,3.7129,3.7112,0,0,3.7127,3.7127,0,0,0,0,0,0,0,0,3.7112,3.7111,3.7112,3.7113,3.7114,3.7117,3.7111,3.7109,3.7126,3.7122,3.7127,3.7128,3.7125,3.7125,3.7124,3.7112,3.7113,3.7127,3.7127,3.7127,3.7127,0,0,0,0,0,0,0,3.7112,3.7111,3.7105,3.7112,3.7113,3.7118,3.7118,3.7111,3.7119,3.7122,3.7123,3.7124,3.7126,3.7124,3.7124,3.7113,3.7127,3.7127,3.7127,3.7126,3.7088,3.7087,0,0,0,0,0,0,3.7111,3.7111,3.7105,3.7105,3.7115,3.7117,3.7118,3.7115,3.712,3.7121,3.7123,3.7124,3.7125,3.7125,3.7124,3.7105,3.7127,3.7126,3.7126,3.7088,3.7087,3.7087,0,0,0,0,0,0,3.7111,3.711,3.7105,3.7109,3.7108,3.7116,3.7113,3.7115,3.7114,3.712,3.7122,3.712,3.7126,3.7125,3.7115,3.7106,3.7126,3.7126,3.7089,3.7088,3.7087,3.7067,0,0,0,0,0,0,3.7111,3.711,3.7104,3.7108,3.7108,3.7096,3.7113,3.7115,3.7113,3.7115,3.7118,3.7119,3.7126,3.7116,3.7115,3.7105,3.7125,3.709,3.7089,3.7087,3.7068,3.7065,3.7062,0,0,0,0,0,3.7111,3.7098,3.7103,3.7102,3.7101,3.7096,3.7095,3.7104,3.7112,3.7106,3.711,3.7119,3.7107,3.7115,3.7114,3.7104,3.7091,3.7089,3.7088,3.707,3.7066,3.7062,0,0,0,0,0,0,3.7091,3.7098,3.7105,3.7092,3.7093,3.7099,3.7091,3.7099,3.7097,3.7099,3.7109,3.7109,3.7098,3.71,3.7109,3.7088,3.71,3.7098,3.7087,3.7083,3.708,3.708,3.7125,0,0,0,0,0,3.7085,3.7081,3.7087,3.7076,3.7076,3.7083,3.7081,3.7088,3.7089,3.7089,3.7092,3.7093,3.7089,3.7086,3.7083,3.7069,3.707,3.7061,3.7058,3.7056,3.7054,3.7046,3.7043,3.7081,3.7081,3.7082,0,0,3.7073,3.7077,3.7073,3.7072,3.7073,3.7068,3.7084,3.7077,3.7074,3.7088,3.7079,3.7082,3.7083,3.7071,3.7065,3.7072,3.7044,3.7054,3.7052,3.7051,3.7044,3.7041,3.7037,3.708,3.7081,3.7081,0,0,3.7048,3.7051,3.7041,3.7042,3.7045,3.705,3.7047,3.7052,3.7054,3.7045,3.7056,3.7052,3.7045,3.7045,3.7045,3.702,3.7028,3.7019,3.7003,3.6996,3.6993,3.699,3.6981,3.6978,3.7017,3.7017,3.7017,0,3.7033,3.7026,3.7035,3.7029,3.7028,3.7041,3.7032,3.7032,3.7033,3.7032,3.7039,3.7031,3.7033,3.7021,3.7015,3.7014,3.7012,3.7018,3.6992,3.699,3.6988,3.6979,3.6976,3.7016,3.7016,3.7016,3.7016,0,3.7007,3.7002,3.6994,3.6995,3.6993,3.6985,3.6993,3.699,3.6996,3.7001,3.6991,3.6994,3.6992,3.6989,3.6995,3.6978,3.6982,3.6991,3.7004,3.6983,3.6975,3.6972,3.7014,3.7015,3.7015,3.7015,0,0,3.6969,3.6976,3.6973,3.6973,3.6977,3.6973,3.6965,3.6963,3.6961,3.6961,3.6954,3.6948,3.6957,3.6956,3.6962,3.6955,3.6936,3.6965,3.6965,3.6959,3.6917,3.6911,3.6907,3.6942,3.6941,3.6941,3.6917,0,3.6946,3.6933,3.6942,3.6928,3.6924,3.6936,3.693,3.6931,3.6935,3.6931,3.6935,3.6931,3.6942,3.6942,3.6936,3.694,3.6928,3.6941,3.6936,3.6935,3.6935,3.6903,3.6896,3.6874,3.6914,3.6914,3.6913,0,3.6916,3.6916,3.6902,3.6906,3.6904,3.6898,3.6897,3.6894,3.6895,3.6899,3.6898,3.6906,3.6899,3.6911,3.6901,3.691,3.6908,3.691,3.6909,3.6909,3.6923,3.6902,3.6867,3.6864,3.6909,3.6909,3.691,0,3.689,3.6886,3.6877,3.6877,3.6882,3.6878,3.6879,3.6882,3.688,3.6879,3.6878,3.6876,3.6875,3.6873,3.688,3.6889,3.6869,3.6882,3.6871,3.6871,3.6867,3.6867,3.6831,3.6865,3.6865,3.6865,3.6866,0,3.6863,3.6854,3.6865,3.686,3.685,3.686,3.685,3.6853,3.6855,3.685,3.686,3.6856,3.6865,3.6861,3.6867,3.6858,3.6857,3.6859,3.6861,3.6858,3.6858,3.6857,3.6859,3.6865,3.6865,3.6865,3.6865,0,3.6833,3.684,3.6831,3.6837,3.6838,3.683,3.6835,3.683,3.6835,3.6828,3.6827,3.6834,3.683,3.6837,3.6834,3.6838,3.6825,3.6829,3.6825,3.6826,3.6815,3.6816,3.6777,3.6773,3.681,3.6809,3.6809,0,3.6815,3.6808,3.6813,3.6811,3.6812,3.6808,3.6807,3.6816,3.6814,3.6815,3.681,3.6807,3.6805,3.6798,3.6803,3.68,3.6804,3.6791,3.6804,3.6802,3.6804,3.6804,3.6804,3.6788,3.6788,3.6787,3.6787,0,3.6782,3.6786,3.6784,3.6783,3.6781,3.6781,3.6781,3.6778,3.6788,3.6785,3.6781,3.678,3.6776,3.6773,3.6772,3.6773,3.6782,3.6783,3.678,3.6778,3.6776,3.6777,3.6817,3.6784,3.6784,3.6784,3.6784,3.6785,3.6758,3.6753,3.6755,3.6752,3.6754,3.6754,3.6749,3.6754,3.6751,3.6749,3.6755,3.6749,3.6751,3.675,3.6751,3.6747,3.6753,3.6749,3.6748,3.6747,3.6745,3.6776,3.6747,3.6747,3.6747,3.6747,3.6747,0,3.6726,3.6729,3.6726,3.6726,3.6724,3.6732,3.6733,3.673,3.6726,3.6727,3.6725,3.672,3.6717,3.6722,3.6719,3.6715,3.6719,3.6714,3.6715,3.6715,3.674,3.6743,3.6712,3.6712,3.6712,3.6712,3.6712,3.6712,3.6709,3.6701,3.6705,3.6698,3.67,3.6696,3.6695,3.6695,3.6696,3.6691,3.6689,3.6692,3.6694,3.6692,3.669,3.6691,3.669,3.6684,3.6687,3.671,3.6713,3.6717,3.6719,3.6684,3.6683,3.6662,3.6662,3.6662]}]]